Dewpoint
37 35 36 35 36 34 33 32 31 31 31 30 32 32 32 32 32 31 31 28 32 32 32 31 30 31 29 28 26 25 24 22 19 20 21 23 22 23 22 25 25 22 24
36 36 36 36 35 34 34 32 32 30 31 30 31 32 33 33 32 32 32 31 31 32 32 30 29 27 25 24 23 21 20 20 20 18 19 19 20 21 22 21 20 21 23
34 35 37 37 36 34 33 32 32 31 30 31 31 32 33 32 31 32 32 30 30 30 30 29 28 26 21 21 19 18 19 18 20 19 17 19 19 20 19 21 22 23 21
34 34 37 38 36 35 33 32 32 31 30 30 32 34 35 31 30 30 30 29 28 27 27 26 25 21 18 17 17 17 17 19 19 18 17 17 18 19 20 20 21 25 25
33 31 34 37 36 33 33 32 32 33 30 31 32 33 34 33 31 29 27 26 25 25 25 24 22 23 25 20 17 17 19 19 19 18 17 17 17 18 19 23 23 22 21
31 32 34 35 34 34 33 33 33 34 32 32 31 32 32 32 32 32 27 23 23 23 24 23 21 23 25 25 23 23 21 19 19 19 18 17 18 19 25 22 19 17 15
33 33 34 33 33 34 34 33 32 33 32 31 31 31 30 32 32 30 26 20 21 23 24 21 20 20 21 19 20 20 20 21 21 20 18 16 16 18 20 18 18 19 19
31 31 33 34 34 34 34 32 30 30 30 30 31 31 31 30 32 30 26 20 22 25 22 21 20 20 20 19 19 18 19 18 17 17 16 15 16 19 21 20 20 20 21
31 32 35 34 33 34 32 32 32 31 30 29 30 30 31 30 31 28 22 23 25 24 24 23 22 18 22 19 19 19 18 18 18 20 20 22 23 24 23 25 25 24 20
32 35 34 33 33 30 32 32 32 30 29 30 28 29 30 28 30 27 23 25 24 25 23 22 23 20 20 20 21 19 18 17 18 17 18 20 21 22 25 24 23 23 23
36 35 35 36 34 32 31 31 30 30 30 30 28 28 28 27 27 27 26 24 24 25 24 23 23 22 22 23 23 20 19 20 20 19 19 19 19 22 22 23 24 25 25
35 35 36 35 32 30 30 30 30 30 30 30 28 28 28 28 28 29 28 25 25 21 22 23 23 26 24 24 24 24 23 23 15 16 18 17 19 19 20 23 24 25 26
37 37 34 33 32 30 30 29 29 29 28 30 29 28 28 29 27 30 29 28 26 22 23 23 25 26 25 25 26 25 23 19 15 10 14 16 17 19 22 23 23 23 25
33 33 33 33 32 31 30 30 29 28 27 28 28 28 27 28 26 26 26 27 26 24 22 23 23 23 21 21 21 23 23 21 19 15 13 14 17 18 19 21 20 21 23
31 32 32 31 32 31 31 30 29 29 29 27 26 28 30 26 27 28 26 24 23 23 18 17 18 18 20 21 20 21 20 20 17 13 12 12 16 18 18 19 20 22 20
31 31 30 30 30 31 30 30 31 31 30 31 31 28 27 30 31 32 31 29 28 28 25 17 13 12 15 19 19 18 16 17 17 16 10 13 13 13 17 18 20 21 20
30 29 28 29 28 28 29 28 27 29 32 32 32 32 31 29 31 30 30 30 29 27 16 16 12 14 16 19 20 19 15 16 16 15 12 9 10 14 14 16 18 17 18
30 30 29 29 29 30 29 28 25 25 26 27 30 32 31 31 31 31 30 29 23 25 21 20 19 19 20 21 21 20 16 13 13 13 8 5 4 8 9 13 15 12 14
29 28 29 30 30 30 29 29 30 29 28 27 28 26 28 32 31 30 30 29 25 23 23 22 22 22 22 22 22 20 17 13 11 6 6 7 5 9 8 10 12 11 13
31 29 29 30 30 30 31 31 31 30 28 27 27 28 27 26 29 30 30 29 27 25 25 24 24 24 24 24 24 23 18 15 12 9 8 4 3 4 5 6 7 6 13
29 30 30 31 32 31 32 32 32 30 29 28 28 28 27 31 31 32 30 29 29 28 27 27 26 26 25 24 23 22 22 22 20 16 14 10 0 5 7 7 8 11 14
27 26 25 25 26 27 28 31 31 31 31 32 32 32 26 28 29 30 32 31 29 29 30 30 29 27 27 26 26 26 24 23 21 19 15 12 11 7 6 7 7 7 8
21 21 23 24 25 25 25 26 28 29 31 32 31 31 27 28 29 29 30 32 33 32 31 31 31 30 29 29 29 28 27 25 24 23 20 15 12 9 4 7 8 6 4
22 22 20 20 21 21 25 28 28 28 29 31 32 31 31 30 29 31 32 32 32 32 32 32 32 32 32 32 32 32 30 28 26 24 22 18 15 11 6 5 5 6 4
17 16 15 15 17 18 19 20 23 26 28 30 29 26 30 29 31 30 29 29 27 28 30 31 32 31 32 31 32 31 31 30 28 26 23 19 15 12 10 7 4 6 4
14 11 10 12 13 14 14 16 16 16 18 18 20 21 22 22 22 23 23 20 20 21 20 21 21 21 23 26 28 29 32 31 28 26 24 20 16 12 9 9 5 3 6
Lifted_Index
4 4 5 6 6 8 9 10 11 12 12 13 13 13 12 12 12 12 11 11 12 12 11 11 11 11 11 10 8 8 8 8 8 9 9 9 9 10 10 10 10 10 10
4 4 5 6 7 8 9 10 11 12 12 12 13 13 12 12 12 12 12 12 12 11 11 11 11 11 10 9 8 8 8 9 9 10 10 10 10 11 11 11 10 10 10
4 5 6 6 8 9 10 10 11 11 12 12 13 12 12 11 11 11 12 12 11 11 12 12 11 11 10 9 8 8 9 10 10 11 11 11 11 11 11 11 10 10 10
4 5 6 7 8 9 10 10 11 11 12 12 12 12 12 11 11 11 11 11 11 11 12 12 11 10 9 8 8 9 9 10 11 11 11 11 11 11 11 11 10 10 10
4 5 7 8 9 9 10 10 11 11 12 12 12 12 11 11 10 10 10 10 10 11 12 11 10 9 9 8 9 9 10 10 11 11 11 11 11 11 11 10 10 10 10
4 5 7 9 9 9 10 10 11 11 11 11 11 11 11 10 10 9 9 9 10 10 10 10 9 9 8 8 9 9 10 11 11 11 11 11 11 11 11 11 11 11 10
4 5 7 9 9 10 10 10 11 11 11 11 11 10 10 9 9 9 9 9 9 9 9 9 8 8 8 8 9 9 10 11 12 12 11 11 11 11 11 11 11 11 11
5 6 8 9 10 10 10 10 11 11 11 10 10 9 9 9 9 8 8 8 8 8 8 8 8 8 8 8 9 9 10 11 12 12 12 12 12 11 11 11 11 11 11
6 7 9 10 10 10 10 11 11 11 10 10 10 9 8 8 8 7 7 7 7 7 7 8 8 8 8 8 9 9 10 10 11 11 12 12 12 11 11 10 10 10 10
8 8 9 10 9 10 10 11 11 11 10 10 9 8 7 7 6 6 6 7 7 7 7 8 8 8 8 8 9 9 10 10 10 11 11 11 11 11 11 10 10 10 10
8 9 9 9 9 9 10 11 11 11 10 9 8 7 6 5 5 5 6 6 7 7 7 7 8 8 8 9 9 9 10 10 10 10 10 11 11 10 10 10 10 10 9
8 8 8 8 8 9 10 11 11 10 10 8 7 6 5 5 5 5 6 6 6 6 6 7 7 8 9 9 9 9 9 9 10 10 10 10 10 10 10 10 10 10 9
8 8 8 9 9 10 10 10 10 9 8 7 6 5 5 5 5 5 6 6 6 6 6 6 7 8 8 8 8 8 9 9 9 9 9 10 10 10 10 10 10 9 9
9 9 10 10 10 10 10 9 8 8 7 6 6 6 5 5 5 5 5 5 5 5 6 6 7 7 8 8 8 8 8 8 8 9 9 9 10 10 10 10 10 9 8
11 11 12 11 10 9 9 8 7 6 6 6 6 6 5 5 4 4 5 5 5 5 5 6 6 7 7 7 7 7 7 7 7 8 9 9 9 9 10 10 10 9 8
12 12 12 11 9 8 8 7 6 6 6 6 6 6 5 5 4 4 4 4 5 5 5 5 6 6 6 7 7 7 7 7 7 7 8 9 9 9 9 10 10 10 9
11 11 10 9 8 7 7 6 6 5 6 6 6 6 5 5 4 4 4 4 4 4 5 5 5 6 6 6 6 6 6 6 6 7 7 8 8 8 8 9 10 10 10
10 9 8 7 7 6 6 5 5 5 5 6 5 5 5 4 4 4 4 4 4 4 4 4 5 5 6 6 6 6 6 6 6 6 7 7 8 8 8 8 9 10 10
8 7 6 6 5 5 5 5 5 5 5 5 5 5 4 4 4 4 4 4 4 4 4 4 4 5 5 5 6 5 5 5 6 6 6 7 7 7 7 8 8 9 9
8 7 6 6 5 5 5 5 5 5 5 5 5 4 4 4 4 4 4 4 4 4 3 3 3 4 4 5 5 5 5 5 5 5 6 6 7 7 7 8 8 8 9
9 8 8 7 7 7 6 6 5 5 5 5 4 4 4 4 4 4 4 4 4 3 3 3 3 3 3 4 4 4 4 4 4 5 5 6 6 7 7 7 7 8 8
10 10 10 10 10 9 9 8 7 6 5 4 4 4 4 4 4 4 4 4 4 3 3 2 2 2 3 3 3 4 4 4 4 4 4 5 6 6 7 7 7 7 7
12 12 12 12 11 11 10 9 8 7 6 4 4 3 3 3 3 3 3 4 4 3 3 2 2 2 3 3 3 3 3 3 4 4 4 4 5 6 7 7 7 7 7
13 13 13 12 12 11 11 9 8 7 6 5 4 3 3 3 3 3 3 3 3 3 3 2 2 2 3 3 3 3 3 3 3 4 4 4 5 5 6 7 7 7 7
14 14 13 13 12 12 11 10 8 7 6 5 4 3 3 3 3 3 3 3 3 3 3 3 3 3 4 4 4 4 4 4 4 4 4 4 5 5 6 6 7 7 7
14 14 14 13 13 12 11 10 9 8 7 6 5 4 3 3 3 3 3 3 3 3 3 4 4 4 4 5 5 5 4 4 4 4 4 4 5 5 6 6 7 7 7